Location: ???? ????????
(44.7704°N, 135.1390°E)
Time: 08:44:09
(UTC+00:00)

Daily predictions for brighter satellites

Satellite Brightness Start Highest point End
(mag) Time Altitude Azimuth Time Altitude Azimuth Time Altitude Azimuth
Meteor 2-20 Rocket 4.4 12:00:27 10° S 12:06:13 88° W 12:12:14 10° N
Terra 3.6 12:08:05 10° SSW 12:12:03 27° W 12:16:02 10° NW
Cosmos 2208 Rocket 4.0 12:07:16 10° SSW 12:12:29 84° WNW 12:17:40 10° NNE
Cosmos 2227 4.3 12:09:07 10° SSW 12:14:52 86° WNW 12:20:40 10° NNE
SPOT 3 Rocket 3.5 12:11:14 16° SSE 12:15:25 76° ENE 12:20:35 10° N
BlueWalker 3 3.7 12:13:04 10° W 12:15:37 19° SW 12:17:35 13° S
Sich 1 3.0 12:11:44 10° N 12:16:00 67° E 12:18:59 19° SSE
GP-B 4.2 12:12:32 10° NNE 12:16:18 28° E 12:18:26 19° SE
CZ-2C R/B 3.7 12:15:49 16° E 12:16:41 19° ENE 12:18:44 10° NNE
CZ-4B R/B 2.9 12:14:32 20° SSE 12:17:04 63° ENE 12:20:59 10° N
Cosmos 44 Rocket 3.8 12:12:18 10° NW 12:17:21 56° WSW 12:21:07 17° SSE
Milstar 3 Cent rocket 3.7 12:16:22 10° SSW 12:18:24 13° S 12:18:24 13° S
Cosmos 1461 3.0 12:18:14 10° NNW 12:21:39 47° NE 12:23:32 22° ESE
IRS-1C Rocket 4.2 12:19:41 18° SSE 12:23:34 69° ENE 12:28:48 10° N
Ariane Rocket 3.0 12:23:47 19° SSE 12:27:26 75° ENE 12:32:32 10° N
Cosmos 1553 Rocket 4.2 12:24:21 16° SSE 12:29:21 56° E 12:35:30 10° NNE
Cosmos 1603 3.7 12:24:43 10° NNW 12:30:30 88° ENE 12:34:24 21° SSE
CZ-4C R/B 3.4 12:24:11 10° NW 12:31:18 59° WSW 12:38:08 17° SSE
Cosmos 1844 Rocket 3.3 12:33:20 10° SW 12:38:48 57° WNW 12:44:18 10° NNE
NOSS 3-2 (C) 3.3 12:35:17 15° S 12:39:06 45° ESE 12:44:30 10° NE
Cosmos 1758 3.2 12:37:08 10° NNW 12:40:49 72° W 12:42:49 25° S
Okean 3 Rocket 3.7 12:37:35 10° NNW 12:42:02 73° W 12:44:50 22° S
USA 186 3.6 12:40:59 12° SW 12:42:16 16° W 12:43:49 10° NW
Okean-O 4.3 12:38:34 10° SSW 12:42:20 28° W 12:46:07 10° NW
NOSS 2-3 (C) 4.4 12:48:00 22° E 12:48:00 22° E 12:50:01 10° ENE
Cosmos 1805 Rocket 3.4 12:45:21 10° N 12:49:41 84° E 12:51:51 29° SSE
Cosmos 1833 Rocket 3.7 12:45:55 10° NNW 12:51:06 36° NE 12:54:40 18° ESE
ATLAS 2AS CENTAUR R/B 4.3 12:48:00 10° WNW 12:53:03 23° WSW 12:58:07 10° SSW
Cosmos 1408 Rocket 3.5 12:49:40 10° N 12:54:06 87° WSW 12:56:20 29° S
OAO 3 Rocket 4.5 12:56:10 10° WSW 12:59:08 21° SSW 12:59:08 21° SSW
Cosmos 2278 Rocket 4.1 12:59:11 12° E 12:59:38 12° E 13:01:53 10° ENE
Cosmos 1743 Rocket 3.6 12:56:51 10° N 13:01:08 65° E 13:02:50 35° SSE
Cosmos 1745 Rocket 4.3 12:58:22 10° N 13:04:32 56° ENE 13:07:51 28° SE
Cosmos 1340 Rocket 3.7 13:01:16 10° NNW 13:04:46 38° W 13:06:34 23° SSW
CZ-4B R/B 4.1 13:05:32 22° SSW 13:08:36 50° W 13:13:38 10° NNW
Lacrosse 5 rocket 3.1 13:12:23 15° E 13:12:23 15° E 13:13:12 10° ENE
Cosmos 1151 Rocket 3.8 13:11:23 18° SSW 13:14:24 49° WNW 13:18:38 10° N
Cosmos 2344 3.8 13:09:22 20° S 13:14:46 47° ESE 13:21:34 10° NE
NOSS 2-3 (D) 3.0 13:14:39 29° SSW 13:16:25 83° SE 13:20:11 10° NE
Cosmos 1607 4.0 13:15:25 10° NW 13:21:49 75° WSW 13:25:02 32° SSE
Cosmos 1703 3.1 13:21:17 46° SW 13:21:56 59° W 13:25:05 10° N
OAO 2 Rocket 4.5 13:17:58 10° SW 13:21:17 26° SSW 13:21:17 26° SSW
Okean O Rocket 4.3 13:21:22 10° WSW 13:22:33 11° W 13:23:44 10° WNW
Cosmos 1241 Rocket 4.4 13:20:18 21° SSW 13:24:35 69° ESE 13:30:47 10° NE
BREEZE-M R/B 4.0 13:22:21 27° SSW 13:24:48 50° SE 13:33:16 10° ENE
Cosmos 2285 Rocket 4.3 13:19:13 10° NNW 13:25:29 62° WSW 13:28:51 28° S
Cosmos 1417 Rocket 4.4 13:23:16 28° S 13:26:43 81° E 13:33:02 10° N
IKONOS-2 4.3 13:27:03 10° NNE 13:31:11 78° ESE 13:32:14 48° S
Cosmos 2315 Rocket 4.1 13:29:35 33° SSE 13:32:24 61° E 13:38:32 10° NNE
Cosmos 1633 Rocket 3.3 13:28:09 10° N 13:32:28 55° E 13:33:33 42° SE
Cosmos 1953 1.9 13:34:36 10° NNW 13:38:11 76° W 13:38:36 65° SSW
Iridium 4 Rocket 4.1 13:37:33 25° SSW 13:40:40 55° W 13:45:43 10° N
NOSS 2-3 (E) 3.9 13:41:03 16° WSW 13:43:45 50° NW 13:47:26 10° NNE
USA 215 3.2 13:40:52 30° SE 13:44:20 77° SW 13:50:53 10° NW
CZ-2C R/B 4.4 13:47:09 15° W 13:47:09 15° W 13:48:50 10° NW
Meteor 1-21 4.2 13:46:49 39° SSE 13:48:52 70° E 13:54:29 10° NNE
Cosmos 1943 Rocket 2.6 13:49:17 38° SE 13:50:34 43° ESE 13:55:53 10° NE
Cosmos 1420 Rocket 4.1 13:45:29 10° NNW 13:50:41 68° ENE 13:52:27 41° SE
ARIANE 5 R/B 3.2 13:52:24 38° ESE 13:53:32 48° ENE 13:57:49 10° N
Cosmos 1538 Rocket 4.4 13:50:36 22° SW 13:53:49 59° WNW 13:58:59 10° NNE
Helios 1A 3.2 13:54:03 10° N 13:57:55 59° WNW 13:58:58 42° SW
Cosmos 1400 Rocket 4.0 13:55:22 10° NNE 13:58:32 26° ENE 13:58:51 26° E
Cosmos 923 Rocket 3.9 14:00:14 45° S 14:01:50 74° ESE 14:07:04 10° NNE
Cosmos 1470 Rocket 3.5 13:59:28 10° N 14:03:56 79° E 14:04:45 58° SSE
ALOS 2 3.0 14:04:58 44° ESE 14:05:54 54° ENE 14:10:12 10° N
CZ-2C R/B 4.1 14:04:30 18° ESE 14:06:58 26° ENE 14:11:14 10° N
BREEZE-M DEB (TANK) 3.4 14:01:41 10° WNW 14:07:04 64° SSW 14:09:21 34° SE
Helios 1B rocket 1.9 14:08:15 79° W 14:08:15 79° W 14:11:39 10° NNW
Cosmos 2112 Rocket 4.2 14:07:47 44° SE 14:08:42 50° ESE 14:13:42 10° NNE
S3M 4.3 14:05:27 27° SSW 14:08:47 58° WNW 14:14:51 10° N
Cosmos 1933 Rocket 4.3 14:07:10 10° N 14:11:15 40° ENE 14:11:59 37° ESE
Okean 2 3.0 14:12:00 81° SSE 14:12:09 87° ESE 14:16:01 10° N
USA 59 Rocket 1.0 14:14:24 25° ENE 14:14:24 25° ENE 14:15:57 10° NE
USA 81 4.2 14:11:13 10° N 14:16:27 62° E 14:17:54 44° SE
Timation 1 Rocket 4.3 14:11:26 10° NNW 14:17:25 81° WSW 14:19:27 44° SSE
CZ-2C R/B 3.7 14:13:52 10° N 14:18:34 81° WNW 14:19:48 50° SSW
Cosmos 1371 Rocket 4.2 14:15:38 10° NNW 14:20:52 63° ENE 14:22:31 41° SE
GEOS 3 Rocket 3.6 14:20:10 45° SSE 14:21:52 80° SW 14:27:18 10° NW
Cosmos 546 4.5 14:22:16 85° NNW 14:22:16 85° NNW 14:26:04 10° ENE
Cosmos 1833 Rocket 3.4 14:29:50 10° NW 14:35:01 38° WSW 14:36:19 33° SW
Cosmos 1441 Rocket 3.8 14:36:12 40° NE 14:36:12 40° NE 14:38:36 10° NNE
PSLV R/B 3.6 14:32:07 10° NNE 14:36:47 88° WNW 14:37:41 59° SSW
Cosmos 2082 Rocket 2.8 14:34:46 10° NNW 14:40:15 50° ENE 14:42:55 28° ESE
USA 238 DEB 3.4 14:39:27 36° SW 14:42:12 88° SE 14:48:55 10° NE
USA 238 3.4 14:39:42 36° SSW 14:42:25 87° SE 14:49:08 10° NE
Cosmos 2278 Rocket 2.1 14:40:58 46° SSW 14:42:46 86° ESE 14:48:28 10° NNE
Cosmos 1869 Rocket 3.6 14:39:01 10° N 14:43:18 64° E 14:43:48 58° ESE
Helios 1B 4.4 14:39:29 10° NNE 14:43:45 87° WNW 14:44:14 70° SSW
Spot 4 4.2 14:44:44 46° SW 14:45:37 52° W 14:50:20 10° NNW
MetOp-A 3.6 14:45:29 54° E 14:45:53 57° ENE 14:49:40 10° N
Lacrosse 5 rocket 2.1 14:45:26 30° W 14:46:37 41° NW 14:49:58 10° NE
Cosmos 1515 Rocket 4.3 14:50:49 38° WSW 14:51:42 44° WNW 14:55:52 10° N
Cosmos 1331 Rocket 4.3 14:56:28 10° NNW 15:01:34 59° ENE 15:03:22 38° SE
CZ-2C R/B 3.1 14:57:41 10° NNE 15:03:16 84° WNW 15:04:48 49° SSW
Cosmos 1733 Rocket 3.8 14:59:39 10° N 15:03:44 41° ENE 15:04:34 36° ESE
Cosmos 1680 Rocket 4.3 15:01:49 29° WSW 15:04:00 45° WNW 15:09:00 10° N
ACS3 Solar Sail 2.1 14:59:07 10° NNE 15:04:39 48° E 15:06:22 37° SE
Cosmos 1624 Rocket 4.3 15:00:08 10° NNW 15:05:17 54° WSW 15:06:16 47° SW
Cosmos 1862 Rocket 4.1 15:08:27 40° ESE 15:08:53 42° E 15:12:56 10° NNE
Okean 3 4.1 15:10:42 38° W 15:11:07 39° WNW 15:14:53 10° N
Cosmos 2056 Rocket 3.9 15:07:03 10° NNW 15:11:53 44° WSW 15:12:34 41° SW
Cosmos 1048 Rocket 3.9 15:10:43 54° SSW 15:11:57 87° ESE 15:17:14 10° NNE
Cosmos 1315 Rocket 4.4 15:13:15 10° NNE 15:16:23 24° ENE 15:17:22 21° E
Okean 1-7 3.2 15:18:47 53° ESE 15:19:09 55° E 15:23:16 10° NNE
NOSS 2-1 (E) 3.3 15:21:15 61° WNW 15:21:23 62° NW 15:24:36 10° NNE
Cosmos 2074 Rocket 4.3 15:18:46 10° NNW 15:24:46 52° W 15:26:48 37° SW
Geosat 3.9 15:23:09 10° NNE 15:28:11 88° ESE 15:29:30 51° SSW
Cosmos 2369 Rocket 3.4 15:26:51 25° SE 15:28:15 28° ESE 15:32:57 10° NE
ARIANE 5 R/B 4.5 15:29:45 18° W 15:30:04 18° W 15:33:09 10° NW
Meteor 1-24 Rocket 4.1 15:30:56 38° SSE 15:33:03 58° E 15:38:58 10° NNE
SL-12 R/B(2) 4.4 15:30:54 35° S 15:34:21 60° ESE 15:43:31 10° NE
Cosmos 1943 Rocket 3.6 15:30:45 17° WSW 15:34:24 32° NW 15:39:27 10° N
Cosmos 2366 rocket 4.5 15:28:18 10° N 15:34:34 56° ENE 15:37:52 28° SE
Cosmos 614 Rocket 3.9 15:34:08 53° S 15:35:20 79° ESE 15:40:26 10° NNE
Cosmos 2327 Rocket 4.4 15:31:27 10° N 15:37:37 82° E 15:40:05 39° SSE
IDEFIX/ARIANE 42P 4.4 15:37:32 10° NE 15:41:28 21° E 15:43:48 16° SE
Cosmos 2218 Rocket 4.4 15:36:41 10° N 15:42:58 59° ENE 15:46:20 28° SSE
ARIANE 6 FM1 Upper Stage 4.2 15:43:22 24° ESE 15:43:22 24° ESE 15:46:26 10° ENE
Timation 2 Rocket 4.4 15:42:48 28° WSW 15:46:02 56° WNW 15:52:28 10° NNE
Cosmos 1328 4.5 15:46:07 36° WNW 15:46:07 36° WNW 15:49:25 10° N
CZ-2C R/B 3.0 15:45:57 39° SW 15:46:57 44° W 15:51:55 10° NNW
Lacrosse 4 Rocket 4.4 15:45:10 10° N 15:47:27 14° NE 15:49:42 10° ENE
Cosmos 1174 3.7 15:50:20 63° WSW 15:50:48 73° WNW 15:54:22 10° NNE
Cosmos 2228 Rocket 3.0 15:51:47 58° SSE 15:52:35 79° E 15:56:59 10° N
NOSS 3-1 (C) 3.2 15:55:08 41° SSE 15:55:58 46° ESE 16:01:00 10° NE
Landsat 5 3.6 15:56:14 10° N 15:59:49 47° WNW 16:00:10 46° W
Meteor 2-15 4.3 15:54:07 10° N 16:00:14 87° W 16:02:53 36° S
USA 59 Rocket 1.9 15:59:49 12° WNW 16:01:29 16° NW 16:03:27 10° N
Meteor 2-13 Rocket 4.4 16:02:39 38° S 16:05:12 87° W 16:11:23 10° N
Cosmos 1452 Rocket 3.7 16:04:50 10° NNW 16:09:57 53° WSW 16:11:16 42° SSW
Cosmos 2341 Rocket 3.9 16:05:56 10° NNW 16:12:10 76° W 16:14:59 35° S
BREEZE-M DEB (TANK) 2.8 16:09:02 10° WNW 16:17:03 71° NNE 16:20:06 10° ESE
Cosmos 1992 Rocket 4.2 16:14:13 10° NNW 16:19:24 68° ENE 16:22:48 21° SSE
MSX 4.4 16:15:25 10° NNE 16:21:01 49° E 16:24:01 26° SSE
Exosat Rocket 4.5 16:20:49 28° WSW 16:23:44 53° WNW 16:30:54 10° NNE
Lacrosse 5 rocket 3.9 16:22:01 10° NW 16:23:53 14° NNW 16:25:46 10° NNE
Cosmos 2082 Rocket 3.3 16:19:26 10° NW 16:23:58 26° WSW 16:24:42 25° WSW
Cosmos 2278 Rocket 4.3 16:23:40 10° W 16:27:36 19° NW 16:31:33 10° N
SL-8 Rocket 4.2 16:22:17 10° NNW 16:28:15 54° W 16:30:53 32° SSW
SL-8 R/B 3.5 16:29:25 34° WSW 16:31:28 84° SSE 16:36:14 10° ENE
Cosmos 1656 Rocket 4.4 16:28:44 24° WSW 16:31:31 42° WNW 16:36:47 10° NNE
Cosmos 1869 2.9 16:29:58 10° NNW 16:33:22 63° W 16:33:37 60° WSW
Cosmos 1300 Rocket 3.7 16:29:11 10° N 16:33:32 70° E 16:35:31 31° SSE
Cosmos 1703 Rocket 3.5 16:35:48 43° SSW 16:37:07 70° W 16:41:30 10° N
Meteor 2-15 Rocket 4.5 16:31:05 10° NNW 16:37:09 64° W 16:40:10 30° SSW
ATLAS 5 CENTAUR R/B 0.8 16:40:49 51° WNW 16:41:03 54° NW 16:44:03 10° NNE
COSMOS 2406 3.7 16:36:25 10° NW 16:41:42 40° WSW 16:43:31 31° SSW
PSLV R/B 4.1 16:38:59 10° N 16:42:47 53° WNW 16:43:47 40° WSW
Cosmos 1818 3.9 16:41:08 30° S 16:43:34 53° ESE 16:48:51 10° NE
ACS3 Solar Sail 3.0 16:41:52 10° N 16:46:36 28° WNW 16:49:44 17° WSW
Cosmos 1356 Rocket 3.8 16:44:43 10° NNW 16:48:31 43° W 16:49:19 38° SW
ADEOS Rocket 3.1 16:44:21 10° NNE 16:50:53 78° ESE 16:54:32 25° S
Cosmos 1315 Rocket 4.0 16:48:44 10° NW 16:51:50 24° W 16:52:01 24° W
USA 290 2.0 16:49:50 10° NNW 16:52:58 77° WSW 16:53:30 56° S
BREEZE-M DEB (TANK) 4.3 16:37:32 10° WSW 16:59:25 81° NNW 17:04:09 10° ENE
Cosmos 2297 3.9 16:56:41 27° SW 16:59:51 65° WNW 17:05:35 10° NNE
COSMOS 2455 2.9 17:01:40 26° SSW 17:05:13 77° ESE 17:11:15 10° NE
Cosmos 2239 Rocket 4.4 17:01:15 10° NNW 17:07:26 73° W 17:11:57 19° S
USA 276 2.7 17:06:44 26° W 17:08:02 48° NNW 17:11:00 10° ENE
Cosmos 2369 Rocket 2.8 17:08:36 21° WSW 17:12:00 46° WNW 17:17:23 10° NNE
ALOS 3.9 17:10:03 10° NE 17:13:59 28° E 17:17:53 10° SSE
Iridium 82 3.7 17:14:09 48° SSW 17:14:49 82° W 17:17:36 10° N
Cosmos 921 Rocket 3.5 17:12:28 21° S 17:15:06 51° ESE 17:19:12 10° NNE
Cosmos 1023 Rocket 4.4 17:13:25 24° SSW 17:16:29 85° ESE 17:21:34 10° NNE
Nadezhda 3 Rocket 4.1 17:13:58 22° SSW 17:17:59 66° W 17:24:13 10° N
SJ 16-02 3.0 17:15:31 10° SSE 17:18:58 26° E 17:22:32 10° NE
IDEFIX/ARIANE 42P 2.9 17:16:08 10° N 17:21:14 54° WNW 17:24:29 22° SW
ARIANE 6 FM1 Upper Stage 3.5 17:19:19 20° WSW 17:21:52 43° NW 17:25:49 10° NNE
SL-4 R/B 1.2 17:20:42 32° WSW 17:22:00 85° NNW 17:25:07 10° ENE
Resurs 1-4 Rocket 3.1 17:17:31 10° NNE 17:22:28 41° E 17:27:25 10° SSE
ADEOS II 3.8 17:18:42 10° NE 17:23:09 28° E 17:27:35 10° SSE
COSMOS 2441 4.4 17:19:00 10° NNE 17:23:52 79° ESE 17:27:28 18° S
Cosmos 1339 Rocket 4.4 17:19:33 20° SSW 17:23:53 75° W 17:29:59 10° N
Meteor 1-21 Rocket 4.3 17:19:42 20° SSW 17:23:55 84° W 17:29:52 10° N
Lacrosse 4 Rocket 1.3 17:21:35 10° NNW 17:25:48 87° WSW 17:29:58 10° SSE
Cosmos 1934 Rocket 4.0 17:20:17 10° N 17:26:35 87° W 17:32:56 10° S
Envisat 3.4 17:22:53 10° NNE 17:27:55 58° E 17:32:21 13° S
Cosmos 1782 Rocket 4.3 17:26:34 10° NNW 17:30:36 36° W 17:32:46 22° SW
FENGYUN 3A 3.9 17:25:47 10° N 17:31:04 59° WNW 17:34:47 19° SW
NOSS 3-1 (A) 2.9 17:31:27 21° SW 17:34:34 78° NW 17:40:07 10° NE
SL-24 DEB 4.5 17:31:15 10° SSE 17:35:36 64° E 17:39:59 10° N
Cosmos 407 Rocket 4.0 17:33:03 14° S 17:37:21 55° ESE 17:42:19 10° NNE
H-2A R/B 4.2 17:35:22 10° SE 17:38:45 31° ENE 17:42:13 10° N
USA 308 2.6 17:36:53 23° SW 17:39:14 77° SE 17:43:27 10° ENE
USA 234 3.9 17:34:17 10° ENE 17:40:29 44° SE 17:45:53 14° SSW
CZ-2D R/B 2.6 17:39:37 10° NNE 17:45:01 59° E 17:50:21 10° S
NPP 4.2 17:41:35 10° N 17:46:42 44° WNW 17:50:45 16° SW
NOSS 3-1 (C) 4.4 17:42:34 10° W 17:46:50 30° NW 17:51:53 10° NNE
NOAA 11 4.4 17:45:05 10° N 17:50:30 60° WNW 17:55:06 14° SSW
Cosmos 2242 Rocket 3.7 17:49:38 16° SSW 17:53:02 61° W 17:57:23 10° N
H-2A R/B 2.4 17:48:39 10° NNE 17:53:57 65° E 17:59:04 10° S
SeaSat 1 2.4 17:50:31 10° SSE 17:55:25 84° WSW 18:00:21 10° NNW
Meteor 1-11 4.3 17:54:18 13° SSW 17:59:16 68° WNW 18:04:54 10° N
Lacrosse 5 rocket 4.1 18:00:22 10° NNW 18:01:40 12° N 18:02:58 10° NNE
Cosmos 405 Rocket 2.0 17:59:22 13° S 18:01:52 85° E 18:04:50 10° NNE
Cosmos 1025 Rocket 3.1 17:58:51 10° S 18:03:10 82° E 18:07:32 10° N
Cosmos 371 Rocket 3.3 17:59:04 13° SSW 18:03:20 80° WNW 18:08:12 10° NNE
Cosmos 1605 Rocket 4.0 18:01:22 10° NNW 18:07:41 75° W 18:13:52 10° S
USA 281 4.3 18:05:05 10° SE 18:11:20 50° ENE 18:17:38 10° NNW
Cosmos 540 Rocket 3.4 18:06:22 10° NNW 18:11:27 76° WSW 18:16:30 10° SSE
Okean 2 Rocket 3.2 18:07:36 10° N 18:12:00 79° E 18:16:21 10° SSE
Cosmos 1346 Rocket 3.9 18:09:29 13° SW 18:12:01 26° WNW 18:15:08 10° NNW
SL-8 R/B 4.4 18:09:20 10° W 18:13:59 55° N 18:18:41 10° ENE
DMSP B5D2-2 4.5 18:09:27 10° S 18:14:26 44° W 18:19:28 10° NNW
Cosmos 304 Rocket 4.1 18:11:03 12° SW 18:15:21 54° WNW 18:20:02 10° NNE
Cosmos 1455 Rocket 4.4 18:13:52 10° N 18:17:57 41° ENE 18:22:02 10° SSE
Cosmos 2151 Rocket 3.7 18:15:12 10° NNW 18:19:40 63° W 18:24:04 10° S
Cosmos 1378 Rocket 4.3 18:20:37 10° SW 18:24:30 34° WNW 18:28:26 10° N
Cosmos 2221 Rocket 3.7 18:21:07 10° S 18:25:37 89° E 18:30:09 10° N
Cosmos 1697 Rocket 4.2 18:21:02 10° SSE 18:26:01 34° ESE 18:31:01 10° NE
ATLAS 3B R/B 4.5 18:22:51 10° S 18:29:17 32° ESE 18:35:58 10° NE
Cosmos 1763 Rocket 3.8 18:28:13 10° NNW 18:33:00 43° WSW 18:37:43 10° S
Cosmos 1782 3.3 18:29:44 10° N 18:33:12 53° E 18:36:38 10° SSE
Cosmos 2292 Rocket 2.5 18:30:43 10° S 18:33:35 89° E 18:36:40 10° N
METEOR-M 4.2 18:29:26 10° NNE 18:34:48 90° E 18:40:09 10° SSW
Sich 1 Rocket 3.7 18:36:06 10° NNW 18:40:38 68° W 18:45:08 10° S
